When you browse on this site, cookies collect data to enhance your experience and personalize the content and advertising you see.
Visit our Privacy Policy to learn more. By continuing to use the site, you agree to this use of cookies and data.
  • En España
  • Lista de países
  • Para 7 días
  • Temperatura del agua
  • Mapa Satelital
  • El tiempo en el mapa
  • Informadores
  • user-avatar
    Iniciar sesión

    Tiempo cada hora Baraki Barak

    Hoy, 21 Noviembre, Miércoles

    Tiempo Temperatura Precipitaciones Viento Presión Humedad
    00:00 +7°C° 0 mm 1 mps 598 mmHg 37%
    01:00 +6°C° 0 mm 0 mps 598 mmHg 38%
    02:00 +5°C° 0 mm 0 mps 597 mmHg 39%
    03:00 +5°C° 0 mm 0 mps 597 mmHg 40%
    04:00 +4°C° 0 mm 0 mps 597 mmHg 41%
    05:00 +4°C° 0 mm 0 mps 597 mmHg 42%
    06:00 +4°C° 0 mm 0 mps 597 mmHg 41%
    07:00 +5°C° 0 mm 0 mps 597 mmHg 40%
    08:00 +5°C° 0 mm 0 mps 598 mmHg 38%
    09:00 +8°C° 0 mm 1 mps 598 mmHg 34%
    10:00 +10°C° 0 mm 1 mps 599 mmHg 29%
    11:00 +11°C° 0 mm 1 mps 600 mmHg 24%
    12:00 +12°C° 0 mm 1 mps 599 mmHg 23%
    13:00 +12°C° 0 mm 2 mps 599 mmHg 22%
    14:00 +13°C° 0 mm 2 mps 599 mmHg 21%
    15:00 +12°C° 0 mm 2 mps 598 mmHg 24%
    16:00 +12°C° 0 mm 2 mps 598 mmHg 26%
    17:00 +10°C° 0 mm 2 mps 598 mmHg 28%
    18:00 +9°C° 0 mm 2 mps 598 mmHg 29%
    19:00 +9°C° 0 mm 2 mps 598 mmHg 31%
    20:00 +8°C° 0 mm 2 mps 598 mmHg 32%
    21:00 +8°C° 0.1 mm 2 mps 598 mmHg 35%
    22:00 +7°C° 0.1 mm 2 mps 598 mmHg 37%
    23:00 +8°C° 0.1 mm 1 mps 597 mmHg 40%

    Mañana, 22 Noviembre, Jueves

    Tiempo Temperatura Precipitaciones Viento Presión Humedad
    00:00 +6°C° 0.2 mm 2 mps 597 mmHg 43%
    01:00 +6°C° 0.2 mm 2 mps 597 mmHg 45%
    02:00 +6°C° 0.2 mm 2 mps 596 mmHg 48%
    03:00 +5°C° 0.6 mm 2 mps 596 mmHg 56%
    04:00 +4°C° 0.6 mm 2 mps 596 mmHg 64%
    05:00 +3°C° 0.6 mm 2 mps 596 mmHg 72%
    06:00 +3°C° 0.4 mm 2 mps 596 mmHg 74%
    07:00 +4°C° 0.4 mm 1 mps 596 mmHg 76%
    08:00 +4°C° 0.4 mm 1 mps 596 mmHg 78%
    09:00 +5°C° 0.1 mm 1 mps 597 mmHg 75%
    10:00 +5°C° 0.1 mm 1 mps 597 mmHg 73%
    11:00 +6°C° 0.1 mm 1 mps 597 mmHg 70%
    12:00 +6°C° 0 mm 1 mps 597 mmHg 68%
    13:00 +7°C° 0 mm 1 mps 597 mmHg 65%
    14:00 +7°C° 0 mm 1 mps 597 mmHg 63%
    15:00 +7°C° 0 mm 1 mps 597 mmHg 64%
    16:00 +7°C° 0 mm 1 mps 597 mmHg 65%
    17:00 +7°C° 0 mm 1 mps 598 mmHg 65%
    18:00 +7°C° 0 mm 1 mps 598 mmHg 68%
    19:00 +5°C° 0 mm 0 mps 598 mmHg 71%
    20:00 +4°C° 0 mm 0 mps 599 mmHg 74%
    21:00 +4°C° 0 mm 0 mps 599 mmHg 75%
    22:00 +5°C° 0 mm 1 mps 599 mmHg 76%
    23:00 +4°C° 0 mm 1 mps 599 mmHg 77%

    Pasado mañana, 23 Noviembre, Viernes

    Tiempo Temperatura Precipitaciones Viento Presión Humedad
    00:00 +4°C° 0 mm 1 mps 599 mmHg 77%
    01:00 +4°C° 0 mm 1 mps 599 mmHg 77%
    02:00 +4°C° 0 mm 1 mps 599 mmHg 77%
    03:00 +3°C° 0 mm 1 mps 599 mmHg 77%
    04:00 +3°C° 0 mm 1 mps 599 mmHg 76%
    05:00 +3°C° 0 mm 1 mps 598 mmHg 76%
    06:00 +3°C° 0 mm 1 mps 599 mmHg 73%
    07:00 +4°C° 0 mm 1 mps 600 mmHg 71%
    08:00 +4°C° 0 mm 1 mps 600 mmHg 68%
    09:00 +6°C° 0 mm 1 mps 601 mmHg 62%
    10:00 +7°C° 0 mm 1 mps 601 mmHg 56%
    11:00 +9°C° 0 mm 1 mps 602 mmHg 49%
    12:00 +9°C° 0 mm 1 mps 602 mmHg 46%
    13:00 +10°C° 0 mm 1 mps 601 mmHg 44%
    14:00 +11°C° 0 mm 1 mps 601 mmHg 41%
    15:00 +10°C° 0 mm 1 mps 601 mmHg 43%
    16:00 +10°C° 0 mm 1 mps 600 mmHg 46%
    17:00 +9°C° 0 mm 1 mps 600 mmHg 48%
    18:00 +9°C° 0 mm 1 mps 600 mmHg 50%
    19:00 +8°C° 0 mm 1 mps 600 mmHg 52%
    20:00 +7°C° 0 mm 1 mps 601 mmHg 54%
    21:00 +7°C° 0 mm 1 mps 600 mmHg 54%
    22:00 +7°C° 0 mm 1 mps 600 mmHg 54%
    23:00 +6°C° 0 mm 1 mps 600 mmHg 53%

    24 Noviembre, Sábado

    Tiempo Temperatura Precipitaciones Viento Presión Humedad
    00:00 +6°C° 0 mm 1 mps 600 mmHg 52%
    01:00 +6°C° 0 mm 1 mps 599 mmHg 51%
    02:00 +6°C° 0 mm 1 mps 599 mmHg 50%
    03:00 +6°C° 0 mm 1 mps 599 mmHg 49%
    04:00 +6°C° 0 mm 1 mps 599 mmHg 48%
    05:00 +6°C° 0 mm 1 mps 599 mmHg 47%
    06:00 +6°C° 0 mm 1 mps 599 mmHg 46%
    07:00 +6°C° 0 mm 1 mps 599 mmHg 45%
    08:00 +6°C° 0 mm 2 mps 600 mmHg 43%
    09:00 +8°C° 0 mm 2 mps 601 mmHg 38%
    10:00 +10°C° 0 mm 2 mps 601 mmHg 33%
    11:00 +12°C° 0 mm 2 mps 602 mmHg 29%
    12:00 +13°C° 0 mm 2 mps 602 mmHg 27%
    13:00 +14°C° 0 mm 2 mps 601 mmHg 26%
    14:00 +15°C° 0 mm 2 mps 601 mmHg 24%
    15:00 +14°C° 0 mm 2 mps 601 mmHg 27%
    16:00 +13°C° 0 mm 2 mps 600 mmHg 30%
    17:00 +12°C° 0 mm 2 mps 600 mmHg 33%
    18:00 +10°C° 0 mm 2 mps 600 mmHg 34%
    19:00 +10°C° 0 mm 1 mps 600 mmHg 35%
    20:00 +10°C° 0 mm 1 mps 600 mmHg 37%
    21:00 +9°C° 0 mm 1 mps 600 mmHg 37%
    22:00 +9°C° 0 mm 1 mps 600 mmHg 38%
    23:00 +8°C° 0 mm 1 mps 600 mmHg 39%

    25 Noviembre, Domingo

    Tiempo Temperatura Precipitaciones Viento Presión Humedad
    00:00 +8°C° 0 mm 1 mps 599 mmHg 40%
    01:00 +8°C° 0 mm 1 mps 599 mmHg 40%
    02:00 +7°C° 0 mm 1 mps 599 mmHg 41%
    03:00 +7°C° 0 mm 1 mps 599 mmHg 42%
    04:00 +7°C° 0 mm 1 mps 598 mmHg 42%
    05:00 +7°C° 0 mm 1 mps 598 mmHg 43%
    06:00 +7°C° 0 mm 1 mps 598 mmHg 42%
    07:00 +7°C° 0 mm 1 mps 599 mmHg 41%
    08:00 +8°C° 0 mm 1 mps 599 mmHg 40%
    09:00 +10°C° 0 mm 1 mps 600 mmHg 36%
    10:00 +11°C° 0 mm 1 mps 601 mmHg 32%
    11:00 +13°C° 0 mm 1 mps 601 mmHg 28%
    12:00 +14°C° 0 mm 1 mps 601 mmHg 27%
    13:00 +15°C° 0 mm 1 mps 601 mmHg 26%
    14:00 +14°C° 0 mm 0 mps 600 mmHg 25%
    15:00 +13°C° 0 mm 0 mps 600 mmHg 29%
    16:00 +12°C° 0 mm 0 mps 599 mmHg 32%
    17:00 +12°C° 0 mm 0 mps 599 mmHg 36%
    18:00 +11°C° 0 mm 0 mps 599 mmHg 37%
    19:00 +10°C° 0 mm 0 mps 599 mmHg 38%
    20:00 +9°C° 0 mm 0 mps 599 mmHg 40%
    21:00 +8°C° 0 mm 0 mps 599 mmHg 40%
    22:00 +8°C° 0 mm 0 mps 599 mmHg 41%
    23:00 +8°C° 0 mm 0 mps 598 mmHg 42%

    26 Noviembre, Lunes

    Tiempo Temperatura Precipitaciones Viento Presión Humedad
    00:00 +7°C° 0 mm 0 mps 598 mmHg 43%
    01:00 +7°C° 0 mm 0 mps 598 mmHg 44%
    02:00 +6°C° 0 mm 0 mps 597 mmHg 44%
    03:00 +6°C° 0 mm 0 mps 597 mmHg 45%
    04:00 +6°C° 0 mm 0 mps 597 mmHg 46%
    05:00 +6°C° 0 mm 0 mps 597 mmHg 47%
    06:00 +6°C° 0 mm 0 mps 597 mmHg 46%
    07:00 +6°C° 0 mm 0 mps 598 mmHg 45%
    08:00 +7°C° 0 mm 0 mps 598 mmHg 44%
    09:00 +8°C° 0 mm 0 mps 599 mmHg 39%
    10:00 +11°C° 0 mm 1 mps 600 mmHg 34%
    11:00 +13°C° 0 mm 1 mps 601 mmHg 29%
    12:00 +14°C° 0 mm 1 mps 600 mmHg 28%
    13:00 +14°C° 0 mm 1 mps 600 mmHg 27%
    14:00 +15°C° 0 mm 1 mps 599 mmHg 26%
    15:00 +14°C° 0 mm 1 mps 599 mmHg 29%
    16:00 +13°C° 0 mm 1 mps 599 mmHg 31%
    17:00 +13°C° 0 mm 1 mps 598 mmHg 34%
    18:00 +12°C° 0 mm 1 mps 598 mmHg 35%
    19:00 +11°C° 0 mm 1 mps 598 mmHg 37%
    20:00 +11°C° 0 mm 1 mps 598 mmHg 38%
    21:00 +10°C° 0 mm 1 mps 598 mmHg 39%
    22:00 +10°C° 0 mm 1 mps 598 mmHg 40%
    23:00 +9°C° 0 mm 1 mps 598 mmHg 41%
    Mostrar más